QFA149 YSSY-NZAA

Flight info

Callsign QFA149
Flight time N/A
Altitude 39000
Route EVONN L521 LUNBI
Aircraft A388/J-SADE2E3FGHIJ3J4J5M1RWXY/LB1D1

Departure

Time 2026-04-26 10:38
Airport Sydney Kingsford Smith International Airport (YSSY)

Arrival

Time N/A
Airport Auckland International Airport (NZAA)
Time Latitude Longitude Altitude Speed Heading
2026-04-26 10:05 -33.93401 151.16776 35 ft 0 kts 258°
2026-04-26 10:24 -33.93395 151.16803 34 ft 4 kts 247°
2026-04-26 10:24 -33.93383 151.16832 33 ft 4 kts 240°
2026-04-26 10:24 -33.93372 151.16857 33 ft 4 kts 261°
2026-04-26 10:24 -33.93378 151.16881 34 ft 4 kts 325°
2026-04-26 10:25 -33.93402 151.16895 32 ft 4 kts 344°
2026-04-26 10:25 -33.93419 151.16900 33 ft 1 kts 347°
2026-04-26 10:25 -33.93412 151.16898 33 ft 0 kts 348°
2026-04-26 10:28 -33.93410 151.16897 35 ft 1 kts 348°
2026-04-26 10:29 -33.93409 151.16897 35 ft 0 kts 348°
2026-04-26 10:29 -33.93394 151.16893 34 ft 5 kts 348°
2026-04-26 10:29 -33.93390 151.16892 31 ft 0 kts 348°
2026-04-26 10:30 -33.93349 151.16889 34 ft 10 kts 13°
2026-04-26 10:30 -33.93286 151.16948 35 ft 12 kts 67°
2026-04-26 10:30 -33.93318 151.17033 35 ft 15 kts 144°
2026-04-26 10:30 -33.93430 151.17085 35 ft 19 kts 167°
2026-04-26 10:31 -33.93573 151.17122 34 ft 23 kts 168°
2026-04-26 10:31 -33.93739 151.17163 34 ft 26 kts 168°
2026-04-26 10:31 -33.93923 151.17212 34 ft 28 kts 168°
2026-04-26 10:31 -33.94120 151.17262 33 ft 30 kts 168°
2026-04-26 10:32 -33.94329 151.17316 35 ft 31 kts 168°
2026-04-26 10:32 -33.94542 151.17372 35 ft 32 kts 168°
2026-04-26 10:32 -33.94761 151.17430 35 ft 32 kts 167°
2026-04-26 10:32 -33.94984 151.17489 34 ft 33 kts 167°
2026-04-26 10:33 -33.95210 151.17545 34 ft 34 kts 168°
2026-04-26 10:33 -33.95438 151.17606 35 ft 33 kts 167°
2026-04-26 10:33 -33.95660 151.17664 35 ft 33 kts 169°
2026-04-26 10:33 -33.95883 151.17721 35 ft 33 kts 167°
2026-04-26 10:34 -33.96105 151.17780 35 ft 33 kts 168°
2026-04-26 10:34 -33.96335 151.17837 35 ft 33 kts 167°
2026-04-26 10:34 -33.96433 151.17899 35 ft 13 kts 103°
2026-04-26 10:34 -33.96433 151.17932 35 ft 0 kts 83°
2026-04-26 10:35 -33.96431 151.17951 35 ft 7 kts 82°
2026-04-26 10:36 -33.96414 151.18041 35 ft 8 kts 55°
2026-04-26 10:36 -33.96378 151.18054 35 ft 7 kts 338°
2026-04-26 10:36 -33.96367 151.18049 35 ft 0 kts 347°
2026-04-26 10:37 -33.96362 151.18047 35 ft 12 kts 347°
2026-04-26 10:37 -33.95970 151.17948 33 ft 98 kts 349°
2026-04-26 10:37 -33.95094 151.17721 33 ft 153 kts 347°
2026-04-26 10:38 -33.93999 151.17404 355 ft 162 kts 350°
2026-04-26 10:38 -33.92897 151.17105 847 ft 167 kts 351°
2026-04-26 10:38 -33.91752 151.16637 1071 ft 185 kts 331°
2026-04-26 10:38 -33.90743 151.15535 1271 ft 207 kts 317°
2026-04-26 10:39 -33.89690 151.14262 1609 ft 227 kts 317°
2026-04-26 10:39 -33.88511 151.12841 1940 ft 250 kts 317°
2026-04-26 10:39 -33.87279 151.11342 2635 ft 254 kts 316°
2026-04-26 10:39 -33.86034 151.09817 3335 ft 256 kts 316°
2026-04-26 10:40 -33.84785 151.08283 3973 ft 259 kts 315°
2026-04-26 10:40 -33.83519 151.06729 4771 ft 265 kts 314°
2026-04-26 10:40 -33.82158 151.05223 5643 ft 270 kts 327°
2026-04-26 10:40 -33.80390 151.04454 6478 ft 277 kts 354°
2026-04-26 10:41 -33.78479 151.04730 7355 ft 280 kts 21°
2026-04-26 10:41 -33.76866 151.06011 8262 ft 280 kts 48°
2026-04-26 10:41 -33.75887 151.08024 9165 ft 282 kts 74°
2026-04-26 10:41 -33.75737 151.10302 10033 ft 286 kts 98°
2026-04-26 10:42 -33.76426 151.12547 10740 ft 295 kts 118°
2026-04-26 10:42 -33.77511 151.14767 10985 ft 319 kts 120°
2026-04-26 10:42 -33.78692 151.17126 11229 ft 339 kts 120°
2026-04-26 10:42 -33.79906 151.19583 11880 ft 344 kts 120°
2026-04-26 10:43 -33.81119 151.22077 12628 ft 347 kts 120°
2026-04-26 10:43 -33.82331 151.24595 13364 ft 350 kts 119°
2026-04-26 10:43 -33.83553 151.27147 14110 ft 353 kts 119°
2026-04-26 10:43 -33.84778 151.29708 14781 ft 355 kts 119°
2026-04-26 10:44 -33.86015 151.32296 15458 ft 358 kts 119°
2026-04-26 10:44 -33.87260 151.34901 16159 ft 359 kts 118°
2026-04-26 10:44 -33.88504 151.37508 16838 ft 361 kts 119°
2026-04-26 10:44 -33.89770 151.40159 17368 ft 367 kts 119°
2026-04-26 10:45 -33.91036 151.42814 18127 ft 367 kts 118°
2026-04-26 10:45 -33.92309 151.45489 18703 ft 370 kts 118°
2026-04-26 10:45 -33.93593 151.48188 19226 ft 373 kts 118°
2026-04-26 10:45 -33.94890 151.50919 19704 ft 378 kts 119°
2026-04-26 10:46 -33.96205 151.53688 20125 ft 383 kts 119°
2026-04-26 10:46 -33.97534 151.56485 20655 ft 384 kts 119°
2026-04-26 10:46 -33.98865 151.59289 21217 ft 386 kts 119°
2026-04-26 10:46 -34.00204 151.62113 21610 ft 392 kts 119°
2026-04-26 10:47 -34.01548 151.64952 22070 ft 395 kts 119°
2026-04-26 10:47 -34.02914 151.67836 22637 ft 397 kts 119°
2026-04-26 10:47 -34.04276 151.70716 23299 ft 395 kts 118°
2026-04-26 10:47 -34.05645 151.73613 23712 ft 400 kts 118°
2026-04-26 10:48 -34.07031 151.76549 24094 ft 404 kts 119°
2026-04-26 10:48 -34.08431 151.79517 24429 ft 409 kts 119°
2026-04-26 10:48 -34.09834 151.82494 25030 ft 406 kts 119°
2026-04-26 10:48 -34.11241 151.85483 25429 ft 410 kts 119°
2026-04-26 10:49 -34.12653 151.88482 25858 ft 412 kts 119°
2026-04-26 10:49 -34.14072 151.91501 26343 ft 414 kts 119°
2026-04-26 10:49 -34.15499 151.94538 26817 ft 417 kts 119°
2026-04-26 10:49 -34.16934 151.97596 27293 ft 419 kts 120°
2026-04-26 10:50 -34.18357 152.00629 27793 ft 423 kts 119°
2026-04-26 10:50 -34.19285 152.02764 28093 ft 425 kts 115°
2026-04-26 10:50 -34.20714 152.07183 28725 ft 430 kts 109°
2026-04-26 10:50 -34.21698 152.10632 29127 ft 435 kts 109°
2026-04-26 10:51 -34.22708 152.14100 29580 ft 439 kts 110°
2026-04-26 10:51 -34.24762 152.21123 30600 ft 445 kts 110°
2026-04-26 10:51 -34.25795 152.24670 30947 ft 451 kts 110°
2026-04-26 10:52 -34.26834 152.28247 31518 ft 450 kts 110°
2026-04-26 10:52 -34.27880 152.31860 31845 ft 456 kts 110°
2026-04-26 10:52 -34.28927 152.35480 32363 ft 456 kts 110°
2026-04-26 10:52 -34.29964 152.39068 32734 ft 461 kts 109°
2026-04-26 10:53 -34.31033 152.42775 32996 ft 468 kts 110°
2026-04-26 10:53 -34.32102 152.46487 33530 ft 468 kts 110°
2026-04-26 10:53 -34.33177 152.50223 33809 ft 474 kts 109°
2026-04-26 10:54 -34.35350 152.57793 34772 ft 476 kts 109°
2026-04-26 10:54 -34.36442 152.61604 35021 ft 481 kts 110°
2026-04-26 10:54 -34.37538 152.65435 35518 ft 481 kts 110°
2026-04-26 10:54 -34.38632 152.69261 36002 ft 481 kts 110°
2026-04-26 10:55 -34.39725 152.73090 36415 ft 482 kts 110°
2026-04-26 10:55 -34.40815 152.76917 36897 ft 482 kts 109°
2026-04-26 10:55 -34.41895 152.80711 37334 ft 482 kts 109°
2026-04-26 10:55 -34.42987 152.84555 37828 ft 481 kts 110°
2026-04-26 10:56 -34.44067 152.88361 38379 ft 479 kts 110°
2026-04-26 10:56 -34.45155 152.92199 38786 ft 480 kts 110°
2026-04-26 10:56 -34.46244 152.96046 39162 ft 480 kts 110°
2026-04-26 10:56 -34.47333 152.99894 39300 ft 486 kts 110°
2026-04-26 10:57 -34.49511 153.07614 39289 ft 482 kts 109°
2026-04-26 10:57 -34.51682 153.15332 39293 ft 483 kts 110°
2026-04-26 10:58 -34.53840 153.23026 39295 ft 481 kts 110°
2026-04-26 10:58 -34.55981 153.30673 39298 ft 482 kts 109°
2026-04-26 10:59 -34.58131 153.38379 39299 ft 482 kts 109°
2026-04-26 10:59 -34.60279 153.46100 39310 ft 482 kts 109°
2026-04-26 11:00 -34.62417 153.53807 39308 ft 481 kts 109°
2026-04-26 11:00 -34.64547 153.61503 39303 ft 481 kts 109°
2026-04-26 11:01 -34.66674 153.69211 39297 ft 481 kts 109°
2026-04-26 11:01 -34.68783 153.76876 39314 ft 480 kts 109°
2026-04-26 11:02 -34.70894 153.84569 39310 ft 480 kts 109°
2026-04-26 11:02 -34.72999 153.92263 39307 ft 479 kts 109°
2026-04-26 11:03 -34.75101 153.99964 39303 ft 479 kts 109°
2026-04-26 11:03 -34.77180 154.07605 39311 ft 478 kts 109°
2026-04-26 11:04 -34.79264 154.15287 39307 ft 478 kts 109°
2026-04-26 11:04 -34.81341 154.22962 39304 ft 478 kts 109°
2026-04-26 11:05 -34.83415 154.30652 39315 ft 477 kts 109°
2026-04-26 11:05 -34.85482 154.38334 39324 ft 477 kts 109°
2026-04-26 11:06 -34.87197 154.44723 39316 ft 477 kts 109°
2026-04-26 11:06 -34.89599 154.53702 39317 ft 477 kts 109°
2026-04-26 11:07 -34.91649 154.61385 39302 ft 477 kts 109°
2026-04-26 11:07 -34.93695 154.69080 39323 ft 477 kts 109°
2026-04-26 11:08 -34.95721 154.76718 39320 ft 476 kts 109°
2026-04-26 11:08 -34.97755 154.84410 39319 ft 476 kts 109°
2026-04-26 11:09 -34.99784 154.92100 39323 ft 476 kts 109°
2026-04-26 11:09 -35.01813 154.99799 39298 ft 476 kts 109°
2026-04-26 11:10 -35.03824 155.07497 39310 ft 477 kts 108°
2026-04-26 11:10 -35.05824 155.15164 39314 ft 477 kts 109°
2026-04-26 11:11 -35.07840 155.22891 39314 ft 478 kts 108°
2026-04-26 11:11 -35.09857 155.30648 39323 ft 479 kts 108°
2026-04-26 11:12 -35.11860 155.38381 39330 ft 480 kts 108°
2026-04-26 11:12 -35.13868 155.46159 39333 ft 480 kts 108°